Wind_Speed
8 8 8 9 10 12 13 14 16 17 17 18 18 18 18 18 18 18 18 19 19 20 20 20 20 20 20 20 20 21 21 22 24 26 27 28 29 29 30 31 33 33 34 34 35 34 32 32 32 33 33 33 32 31 30 29 30 31 31 31 30 31 31
10 10 11 12 13 14 15 16 17 17 18 18 18 18 17 17 18 18 19 19 19 20 20 20 21 21 21 21 21 22 22 23 24 26 27 28 29 30 30 31 33 34 34 35 35 35 34 33 33 33 33 33 33 33 32 31 32 33 32 32 31 31 30
12 13 13 14 14 15 16 16 17 18 17 18 18 18 17 17 17 18 19 19 19 20 20 21 21 22 22 22 22 22 23 24 25 26 27 29 30 30 30 31 32 33 34 34 34 35 34 34 33 33 33 32 31 31 31 31 31 31 31 31 31 30 29
14 13 13 14 14 14 15 16 17 18 18 18 19 18 18 18 18 19 19 19 19 20 20 21 22 22 22 23 23 23 24 25 26 27 28 29 30 30 30 30 30 31 32 32 32 33 33 33 33 32 31 31 30 29 29 29 29 29 30 30 30 29 28
16 14 14 14 14 15 15 16 17 18 18 18 19 19 18 19 19 19 19 19 20 20 20 21 22 22 23 23 23 24 24 25 26 27 28 29 30 30 30 30 29 30 31 31 31 30 30 30 30 30 30 29 28 27 27 27 27 28 28 28 28 27 26
17 17 16 16 16 16 17 17 18 19 18 18 19 19 18 19 19 19 19 19 20 20 20 21 22 22 22 22 23 23 24 25 26 27 28 30 30 31 31 30 29 28 29 29 29 28 28 27 27 27 27 27 26 25 25 25 25 25 26 26 26 26 25
19 19 18 18 17 18 18 17 18 19 18 17 18 19 19 19 19 19 19 19 19 19 20 21 22 22 22 22 23 23 24 25 26 26 27 29 30 31 31 30 29 27 27 26 26 26 25 24 24 24 25 25 25 24 23 23 23 24 25 25 25 25 25
19 20 20 19 18 17 18 17 17 18 17 16 17 19 19 19 18 18 19 19 19 19 20 21 21 21 21 22 23 24 24 24 25 25 26 27 28 30 31 31 29 27 26 24 24 24 23 22 22 22 23 23 23 24 24 23 23 24 24 25 25 26 25
20 21 21 20 18 17 17 17 16 16 16 16 17 19 20 19 17 18 18 18 18 18 19 20 20 20 21 22 23 24 24 23 23 23 24 25 26 27 28 29 28 26 24 23 22 22 21 20 20 20 21 22 23 23 24 24 24 24 24 25 25 25 25
20 21 21 20 19 17 16 16 16 16 15 15 17 18 20 18 16 17 17 17 18 18 18 19 19 20 21 22 23 24 23 22 21 21 21 22 22 23 24 25 26 24 23 22 21 20 19 19 19 19 20 21 22 23 23 23 23 23 23 23 24 24 24
20 20 20 20 19 17 14 14 15 15 15 16 17 18 19 18 16 16 16 17 17 18 17 18 18 20 21 21 22 23 22 20 19 19 18 18 18 19 19 20 21 20 20 19 19 19 18 18 18 19 20 20 21 22 22 22 22 21 21 21 22 22 22
20 21 20 19 18 17 16 15 15 14 15 17 18 19 18 16 15 15 16 16 17 17 16 16 18 19 20 21 22 21 20 18 17 16 15 14 14 14 15 14 14 15 16 16 17 17 17 17 18 18 19 19 19 19 19 19 19 18 18 18 17 16 16
20 21 21 20 18 18 17 16 16 15 17 19 19 18 17 15 15 15 15 16 16 16 15 15 17 18 19 20 20 19 17 14 13 12 11 10 9 10 10 10 10 11 12 13 14 15 15 15 15 16 16 15 15 14 14 13 12 11 11 10 9 8 8
20 21 22 20 19 17 15 15 16 17 18 21 21 18 15 14 14 14 14 15 15 15 14 14 16 18 19 19 18 16 14 11 9 9 8 7 6 6 6 6 7 8 9 10 11 11 10 10 9 8 8 7 6 5 4 4 3 3 4 4 4 4 6
21 22 22 21 19 17 14 14 15 17 19 22 21 16 13 13 13 13 14 14 14 14 13 14 15 17 18 18 16 14 11 8 7 6 5 4 3 3 3 4 4 5 5 5 5 4 3 2 1 2 2 3 3 2 2 1 1 2 3 5 5 6 6
21 21 22 21 20 18 15 14 15 17 19 21 19 14 12 12 12 12 13 13 13 13 12 13 14 16 17 16 13 10 8 6 5 4 3 2 0 1 2 3 3 3 3 4 5 6 7 7 6 6 6 5 5 4 4 4 4 4 5 5 6 6 6
21 21 21 20 20 18 16 15 16 17 19 20 17 12 11 11 11 11 11 12 12 12 11 12 13 15 16 14 10 8 6 5 3 2 2 1 1 2 3 4 6 8 10 11 11 10 9 7 7 6 5 5 5 4 5 6 6 6 6 5 5 4 4
20 20 20 20 19 18 16 16 16 17 19 19 15 11 10 10 10 10 10 11 11 10 10 10 12 13 13 11 8 5 4 3 2 2 1 1 2 3 6 9 12 13 13 12 11 9 8 6 5 5 4 3 3 3 4 5 7 8 7 6 5 4 4
20 20 19 19 19 17 15 15 15 16 18 17 13 10 10 10 9 9 9 10 10 9 8 9 10 11 11 8 5 4 2 2 0 1 2 3 5 8 12 14 15 14 12 11 9 7 6 5 4 2 1 0 1 2 3 4 6 7 7 7 6 5 5
20 20 19 18 18 16 15 14 14 16 17 15 11 9 9 9 8 8 9 10 10 8 7 8 9 10 9 6 4 3 2 2 2 3 5 8 11 14 16 15 14 12 10 8 7 5 4 3 2 1 1 2 3 3 4 4 5 6 7 7 7 6 6
19 19 18 17 17 17 15 14 15 16 15 12 10 9 8 7 7 7 8 9 9 8 7 7 8 8 7 4 2 1 1 2 3 5 9 13 16 16 15 13 12 10 8 6 5 4 3 3 2 2 2 3 3 4 4 5 5 6 7 7 7 7 6
15 16 16 16 17 16 15 14 16 16 13 10 9 9 7 7 7 7 8 8 8 7 6 6 7 7 5 3 2 1 1 2 4 8 12 16 16 15 13 11 10 8 6 5 4 3 3 3 3 3 3 3 3 4 4 5 5 6 6 7 8 8 8
14 14 14 15 15 15 15 15 15 14 11 9 9 8 7 6 7 7 7 8 7 6 5 5 6 5 4 2 2 2 2 3 6 11 14 15 14 12 11 10 8 6 5 4 4 4 4 4 4 4 4 4 4 4 5 5 5 6 6 7 8 8 9
14 14 13 13 14 15 15 15 14 12 10 9 9 7 6 7 7 7 7 7 7 6 5 4 5 5 3 2 3 3 3 5 9 13 14 14 12 11 9 8 6 5 4 4 4 4 4 5 5 5 5 5 5 5 5 6 6 6 7 7 8 8 9
15 15 14 13 14 14 14 14 12 9 8 9 9 7 7 7 7 7 7 7 7 6 5 4 4 4 3 3 4 5 6 8 11 13 13 12 11 9 8 7 5 3 3 3 4 4 4 5 5 5 5 5 5 6 6 6 6 7 7 7 8 8 8
16 16 15 14 14 14 14 12 10 8 7 8 8 8 7 7 8 8 8 8 7 6 5 5 5 4 3 4 5 6 8 10 12 12 12 11 10 8 7 6 4 2 2 3 3 3 3 3 4 4 5 5 6 6 6 6 7 7 7 8 8 8 8
16 16 16 15 13 13 13 11 8 7 7 7 8 8 7 8 8 8 8 8 8 7 6 6 5 5 5 6 6 8 9 11 11 11 11 10 9 8 7 5 3 2 1 1 2 2 2 2 3 4 5 5 6 6 7 7 7 8 8 8 8 9 9
15 16 16 15 13 13 13 11 8 6 6 7 8 8 7 7 8 8 8 8 8 8 7 7 7 6 7 8 8 9 10 10 11 11 10 10 9 8 7 6 3 2 1 1 1 0 1 2 3 4 5 6 6 7 7 8 8 8 9 9 9 9 9
15 15 15 14 13 13 13 11 8 7 6 7 8 8 7 7 8 8 8 8 9 9 8 8 8 8 9 10 10 10 10 11 11 11 11 10 10 9 8 6 4 3 3 3 2 2 2 3 4 5 6 6 7 7 7 8 8 8 9 9 9 9 10
13 15 15 14 12 12 13 12 9 7 7 7 8 8 7 7 8 8 8 8 9 9 9 9 9 9 10 12 12 11 11 11 12 12 11 11 10 9 8 7 6 5 5 5 4 3 3 3 4 6 7 7 7 8 8 8 8 9 9 9 10 10 10
12 13 14 13 12 11 12 12 10 8 8 8 9 9 8 7 7 8 8 8 9 10 10 10 10 10 11 13 13 13 13 12 12 12 11 11 11 10 9 8 7 7 7 6 6 5 4 4 5 6 7 8 8 9 9 9 9 10 10 10 11 11 11
11 13 13 12 11 10 11 12 11 9 9 10 9 9 9 8 7 8 9 8 9 10 11 11 11 11 12 14 15 14 14 13 13 12 12 11 11 10 9 9 9 8 8 8 7 6 5 4 5 6 7 8 9 9 10 10 11 11 11 11 11 11 12
14 15 15 14 13 11 10 10 11 10 10 10 11 10 10 10 8 8 9 9 9 10 12 12 12 12 13 15 16 16 15 15 14 13 13 12 11 11 10 10 10 10 10 10 9 8 7 5 5 6 7 8 9 10 11 11 12 12 12 12 11 11 12
17 17 17 17 16 14 12 11 11 11 10 11 12 12 12 11 10 9 9 9 9 11 12 13 13 12 13 15 17 17 16 16 15 15 14 13 12 12 12 11 11 11 11 11 10 10 9 7 7 7 7 8 10 11 11 12 12 13 13 12 12 11 11
17 17 18 18 18 18 16 14 13 12 11 11 12 13 13 13 12 11 10 10 10 11 12 13 14 13 14 16 18 18 18 17 16 16 15 14 14 13 13 13 13 13 12 12 12 11 10 9 9 8 8 9 10 11 12 12 13 13 14 13 13 12 12
19 19 19 19 20 20 19 17 15 14 13 12 13 14 15 15 14 13 12 11 11 11 13 14 15 15 15 16 18 20 19 18 18 17 16 15 15 15 15 14 14 14 14 14 13 13 12 12 11 10 9 10 10 11 12 13 13 14 14 14 14 12 12
20 20 21 21 20 21 21 20 18 15 14 15 15 15 16 16 16 15 15 13 12 13 14 15 16 16 16 17 19 21 21 20 19 18 17 16 16 16 16 15 15 15 15 15 15 15 14 14 13 12 11 11 11 12 13 14 14 14 15 15 15 13 12
Wind_Direction
301 302 299 298 299 300 301 302 303 303 303 304 304 303 302 301 301 298 296 295 293 292 291 290 288 288 287 287 287 284 280 273 268 264 261 256 250 246 244 246 248 247 245 246 248 246 242 239 240 241 242 242 243 243 245 246 247 248 251 254 254 256 259
292 293 293 295 296 297 299 299 299 300 299 300 300 299 297 296 295 293 291 290 289 288 287 286 285 284 283 284 283 283 281 276 271 266 263 260 255 249 245 244 247 248 248 248 249 250 248 245 243 242 244 245 246 246 247 249 250 250 253 254 256 259 262
287 289 290 292 293 295 296 297 299 300 299 299 299 298 296 294 293 291 290 289 288 288 286 285 283 282 281 281 281 280 279 277 273 268 264 262 258 254 249 246 246 247 249 250 251 252 252 251 249 248 248 249 251 253 254 256 256 256 256 257 259 263 266
288 289 290 292 294 295 296 297 299 300 301 302 303 302 299 297 296 294 292 291 289 288 286 284 283 281 280 280 280 280 279 277 274 269 265 260 258 256 254 250 247 247 248 250 251 253 254 255 256 256 256 256 257 259 261 262 263 263 262 262 264 267 271
292 293 295 297 299 299 299 299 300 301 303 304 305 304 301 298 296 294 293 292 290 288 286 285 283 281 280 280 280 280 279 276 273 269 264 259 255 254 254 253 252 250 249 250 250 252 254 255 257 259 262 263 265 266 267 267 267 266 266 266 267 270 274
296 297 299 302 302 301 300 300 300 301 303 304 304 303 299 296 294 292 291 290 289 288 287 285 283 282 281 281 283 282 280 277 274 270 264 259 255 252 252 253 253 252 251 251 252 253 254 255 256 257 260 264 268 271 271 271 270 268 267 267 268 271 274
296 297 299 300 300 299 299 300 301 301 304 305 304 302 298 294 292 290 289 288 288 288 287 286 285 284 284 285 286 286 283 280 275 270 265 260 255 251 249 250 252 253 252 252 252 253 255 255 254 255 258 262 266 270 271 271 269 268 267 267 268 270 273
296 296 297 297 298 299 299 301 301 302 306 307 304 301 297 292 290 289 287 287 287 287 286 287 287 288 289 290 291 290 287 283 278 272 266 262 258 252 248 248 250 252 252 252 252 253 254 254 254 254 257 261 264 267 268 268 267 267 267 268 269 271 274
296 297 298 299 301 302 303 303 303 304 308 308 305 301 295 292 290 287 285 286 286 286 286 288 291 293 293 295 295 294 292 289 283 276 270 264 260 255 250 248 248 250 251 251 251 252 255 255 255 255 257 260 264 266 267 268 267 267 267 269 271 273 275
296 298 300 302 304 305 307 307 309 313 316 312 306 300 295 293 290 285 285 287 286 286 288 291 295 297 298 299 300 300 299 295 288 282 275 268 262 257 254 250 248 248 248 249 250 252 255 257 258 259 260 262 265 267 268 269 269 269 269 270 273 275 276
299 301 302 304 306 309 312 314 317 322 323 317 309 300 296 294 289 284 285 287 287 289 290 293 298 301 302 303 305 305 302 297 291 286 281 274 266 260 256 253 249 246 245 246 248 251 256 260 262 264 265 267 269 270 271 272 272 272 273 275 277 279 279
302 303 303 307 311 316 321 321 322 327 326 322 314 303 297 293 287 284 285 287 289 291 291 295 301 304 306 308 309 307 303 297 294 292 288 282 273 265 259 254 247 243 241 242 246 251 257 262 266 269 271 273 273 273 274 274 275 276 277 278 279 281 282
302 303 305 310 315 319 322 320 320 326 328 327 320 308 297 289 285 283 285 288 291 292 293 298 304 307 310 312 311 307 302 299 300 299 295 287 275 264 257 249 241 239 239 240 245 252 259 264 269 273 275 275 275 276 276 277 277 278 277 277 276 277 280
301 302 305 310 314 317 318 315 317 323 327 327 323 312 296 286 282 281 284 289 292 293 296 302 308 311 313 314 311 306 303 304 307 306 300 293 278 262 251 239 231 232 235 239 246 254 261 268 273 275 275 276 275 273 274 272 273 274 272 274 273 273 277
299 300 304 309 311 312 312 310 312 318 323 326 324 312 293 282 278 279 284 290 293 295 299 306 312 315 317 317 312 306 305 308 313 316 313 302 278 247 224 210 208 216 225 231 236 237 230 214 169 127 115 102 94 88 75 58 7 325 309 301 294 288 286
298 300 303 307 308 308 308 306 307 313 319 325 324 309 289 279 276 278 285 290 294 297 302 309 315 318 320 320 315 306 303 303 310 322 328 327 247 163 155 156 155 154 149 141 133 129 125 120 114 108 101 91 78 62 43 23 6 352 342 329 316 307 302
296 298 301 304 305 305 306 306 308 312 319 324 321 304 285 277 274 277 285 290 293 295 302 311 317 320 322 323 319 308 300 297 297 302 308 341 109 122 122 121 121 121 121 121 120 119 115 111 106 101 94 83 69 53 35 19 10 7 8 6 354 341 332
292 294 297 300 302 304 307 309 311 313 319 323 317 297 282 276 273 278 285 288 289 292 301 312 317 319 323 328 327 319 312 304 289 271 243 190 147 128 121 120 120 120 119 117 114 111 108 105 104 104 100 88 72 47 22 11 7 7 13 20 18 9 357
289 291 294 296 299 303 306 310 311 313 318 320 311 291 279 274 273 279 284 285 287 289 298 310 315 318 324 333 337 344 357 356 341 145 151 151 137 128 124 122 121 119 117 114 110 107 104 102 102 104 101 72 351 340 340 346 351 355 2 12 18 19 10
285 288 292 295 298 301 305 310 312 314 317 316 303 284 275 273 273 276 278 281 283 285 294 306 313 317 324 332 339 355 20 43 93 118 130 133 130 128 126 124 122 119 116 112 107 101 94 86 79 58 4 328 321 322 323 328 335 342 349 356 4 12 14
282 285 290 295 298 301 307 315 316 315 315 310 295 280 272 271 272 273 273 276 278 281 290 301 308 314 319 320 321 342 40 80 105 122 130 132 131 130 127 125 122 119 114 108 99 86 70 53 39 24 6 346 333 325 324 329 334 337 341 346 351 359 6
284 285 290 294 298 302 310 317 316 314 312 303 287 276 269 268 268 268 270 272 272 274 284 296 303 310 313 298 283 272 130 113 118 130 134 134 133 131 128 126 122 116 109 98 81 62 51 45 36 26 14 358 344 334 332 334 335 336 338 343 349 354 358
292 289 291 295 298 303 311 318 316 312 308 297 281 271 265 262 263 263 266 268 268 269 275 287 298 305 303 267 237 217 166 138 136 139 139 138 137 135 131 129 123 114 102 84 67 57 53 49 40 32 23 11 359 350 347 347 345 342 343 347 351 354 355
298 293 293 296 299 304 313 319 315 308 302 291 278 267 258 256 258 261 263 264 265 263 265 278 289 294 286 237 207 197 174 154 149 147 146 146 145 141 138 135 127 112 92 73 66 63 56 48 39 32 25 17 8 359 356 356 355 353 352 352 352 352 352
302 298 296 298 300 304 312 318 312 301 294 285 274 265 256 253 256 259 261 263 263 260 257 264 274 274 260 217 195 185 173 162 158 157 156 156 154 152 149 146 135 113 86 71 69 67 56 44 34 25 19 15 9 3 356 353 351 350 349 349 348 347 346
303 300 299 299 300 303 310 316 308 291 284 279 272 266 258 255 257 258 259 261 261 257 252 253 258 249 229 205 188 180 174 170 168 166 166 166 165 164 163 160 149 120 85 74 76 70 52 36 23 15 11 7 3 0 355 349 345 342 340 339 339 339 338
302 299 298 299 300 302 307 313 305 283 275 273 268 264 259 256 257 257 259 260 258 254 247 247 248 233 213 199 188 181 179 178 177 177 176 176 176 176 177 176 165 139 95 92 93 72 38 18 7 1 359 356 355 354 352 349 345 341 337 334 332 330 330
299 297 298 299 299 299 304 311 301 276 268 268 265 261 257 256 257 257 257 258 256 251 245 244 244 228 207 198 192 187 186 186 188 189 187 186 186 186 189 189 184 186 196 179 168 127 350 344 348 349 347 347 348 348 348 348 345 341 338 335 331 328 325
296 294 295 296 298 299 304 310 301 273 262 262 260 258 254 253 256 257 256 255 253 249 243 241 241 228 209 198 195 195 194 195 197 199 198 196 196 197 200 201 203 215 226 219 216 239 287 319 334 339 337 337 339 342 344 343 341 340 339 338 336 332 327
294 294 294 296 300 301 305 310 304 277 260 257 257 257 253 250 254 256 255 252 249 245 240 238 239 230 213 201 198 200 201 202 204 204 202 202 202 204 207 211 215 224 231 228 227 242 270 305 326 329 330 331 333 337 340 339 337 338 341 343 342 339 335
288 290 292 296 301 304 305 308 305 284 261 254 254 255 254 250 251 255 254 250 245 241 237 235 237 232 217 205 202 203 205 208 209 208 205 206 208 209 211 216 221 228 232 232 233 241 262 293 315 323 326 328 330 335 338 339 338 337 339 342 344 343 342
282 283 286 291 298 302 301 301 301 288 264 253 250 252 254 251 249 253 255 251 244 239 235 231 233 233 221 209 207 207 208 211 214 213 210 211 212 214 217 221 226 230 234 236 237 243 255 278 302 315 323 327 330 333 337 340 341 339 337 337 338 341 343
278 279 280 284 289 295 295 293 293 285 268 254 249 249 252 252 250 251 254 252 244 236 233 229 229 232 225 214 210 210 211 214 218 218 216 217 218 220 223 227 230 233 235 238 241 247 254 268 287 305 318 325 329 332 334 338 341 341 337 333 331 332 335
275 275 275 278 281 285 288 286 284 279 267 255 249 247 249 250 251 250 250 251 245 236 231 228 227 231 228 219 214 213 214 216 219 221 221 221 223 226 229 232 235 237 239 240 243 249 255 264 278 295 310 321 327 329 332 335 338 339 337 333 327 323 323
282 278 275 277 277 278 281 281 280 276 267 255 248 245 246 247 249 250 248 246 243 236 230 227 227 229 230 225 219 217 217 217 220 223 223 223 226 229 232 236 239 241 242 244 246 250 256 263 273 285 299 311 319 325 328 331 334 336 336 333 328 322 319
287 285 281 281 277 275 276 277 278 276 270 262 251 244 243 244 246 248 248 244 240 234 230 228 228 228 230 229 225 222 221 221 221 223 224 225 227 231 234 238 241 244 246 247 249 252 257 263 269 278 288 300 310 317 322 325 328 330 332 332 329 324 317
272 276 279 280 277 275 274 275 275 272 268 266 258 247 241 240 241 243 245 244 238 233 230 229 229 230 230 230 228 226 226 226 225 225 225 227 230 232 235 239 243 247 249 250 252 255 258 263 268 274 282 291 301 309 315 320 323 325 326 328 328 324 316
Height
5793 5793 5792 5792 5792 5791 5791 5791 5790 5789 5789 5788 5787 5786 5785 5784 5784 5783 5782 5782 5781 5780 5780 5779 5778 5778 5777 5776 5775 5775 5774 5773 5772 5772 5771 5772 5772 5773 5773 5773 5772 5772 5771 5771 5770 5770 5772 5773 5773 5773 5773 5773 5773 5773 5774 5774 5774 5773 5773 5773 5773 5773 5773
5791 5791 5790 5790 5790 5789 5789 5788 5788 5787 5787 5786 5785 5784 5783 5783 5782 5781 5780 5780 5779 5778 5777 5777 5776 5775 5774 5773 5772 5771 5771 5770 5769 5768 5768 5768 5768 5768 5770 5770 5769 5768 5768 5767 5767 5767 5768 5769 5769 5770 5770 5770 5770 5770 5771 5771 5771 5771 5770 5770 5770 5770 5770
5790 5789 5788 5788 5787 5787 5787 5786 5786 5785 5784 5784 5783 5782 5781 5780 5780 5779 5778 5777 5776 5776 5775 5774 5773 5772 5771 5770 5769 5768 5767 5766 5766 5765 5764 5764 5764 5764 5765 5766 5766 5766 5765 5765 5764 5764 5764 5765 5766 5767 5767 5768 5768 5768 5769 5769 5768 5768 5768 5767 5767 5767 5767
5788 5787 5786 5786 5785 5785 5784 5784 5783 5782 5782 5781 5780 5780 5779 5778 5777 5776 5775 5774 5774 5773 5772 5771 5770 5769 5768 5767 5766 5765 5764 5763 5762 5761 5761 5760 5760 5760 5760 5761 5762 5762 5762 5762 5762 5762 5762 5763 5763 5764 5764 5765 5766 5766 5766 5766 5766 5765 5765 5765 5765 5765 5765
5785 5785 5784 5783 5783 5782 5781 5781 5780 5779 5779 5778 5777 5777 5776 5775 5774 5773 5772 5771 5771 5770 5769 5768 5767 5766 5765 5764 5763 5762 5760 5759 5758 5758 5757 5756 5756 5756 5756 5757 5758 5758 5759 5759 5759 5760 5760 5761 5761 5762 5762 5762 5763 5763 5764 5764 5763 5763 5763 5762 5762 5762 5762
5783 5782 5781 5781 5780 5779 5778 5778 5777 5776 5776 5776 5775 5774 5774 5772 5771 5770 5769 5769 5768 5767 5766 5765 5764 5763 5762 5761 5760 5758 5757 5756 5755 5754 5753 5753 5753 5753 5753 5753 5754 5755 5755 5756 5757 5757 5758 5759 5760 5760 5760 5760 5760 5761 5761 5761 5761 5760 5760 5760 5760 5759 5759
5781 5780 5780 5779 5778 5777 5776 5775 5774 5773 5773 5773 5772 5771 5771 5770 5769 5768 5767 5766 5765 5764 5763 5762 5761 5760 5759 5758 5756 5755 5754 5752 5752 5750 5749 5749 5749 5749 5749 5750 5750 5751 5752 5753 5754 5755 5755 5757 5758 5758 5758 5758 5758 5758 5758 5758 5758 5757 5757 5757 5757 5757 5756
5779 5779 5778 5777 5776 5775 5773 5772 5771 5770 5770 5770 5769 5768 5767 5767 5766 5766 5764 5763 5763 5761 5760 5759 5758 5757 5756 5754 5753 5751 5750 5749 5748 5747 5746 5745 5745 5745 5746 5746 5747 5748 5749 5751 5752 5752 5753 5754 5755 5756 5756 5756 5756 5755 5755 5755 5755 5755 5754 5754 5754 5753 5753
5777 5777 5776 5775 5774 5772 5771 5769 5768 5768 5768 5767 5766 5765 5764 5764 5764 5763 5762 5761 5760 5759 5758 5756 5755 5754 5753 5751 5749 5748 5747 5745 5744 5743 5742 5742 5742 5742 5742 5743 5744 5746 5747 5748 5749 5749 5750 5751 5752 5753 5754 5754 5753 5753 5752 5752 5753 5753 5752 5751 5751 5750 5750
5774 5774 5773 5773 5772 5770 5768 5767 5765 5765 5765 5764 5763 5762 5761 5761 5761 5760 5759 5759 5757 5756 5755 5754 5753 5751 5750 5748 5746 5745 5743 5742 5740 5739 5739 5738 5738 5739 5739 5740 5741 5743 5744 5745 5746 5747 5748 5749 5750 5750 5751 5751 5751 5750 5750 5750 5750 5750 5749 5749 5748 5747 5747
5772 5771 5771 5770 5769 5768 5766 5764 5763 5763 5762 5762 5760 5759 5758 5758 5759 5758 5757 5756 5755 5754 5753 5752 5750 5749 5747 5746 5744 5742 5740 5739 5737 5736 5736 5736 5736 5736 5737 5738 5739 5740 5742 5743 5744 5745 5746 5747 5747 5747 5748 5748 5748 5748 5747 5747 5747 5747 5747 5746 5745 5744 5744
5769 5768 5768 5767 5766 5765 5763 5762 5761 5761 5760 5759 5758 5756 5756 5756 5756 5755 5755 5754 5753 5752 5751 5750 5748 5747 5745 5743 5741 5739 5738 5737 5735 5734 5734 5734 5734 5734 5735 5736 5737 5738 5740 5741 5742 5743 5744 5744 5744 5745 5745 5746 5746 5745 5745 5745 5745 5744 5744 5744 5743 5742 5741
5767 5766 5765 5764 5763 5762 5760 5759 5759 5759 5758 5757 5755 5754 5754 5754 5753 5753 5752 5752 5751 5750 5749 5748 5746 5745 5743 5741 5739 5737 5736 5735 5734 5733 5732 5732 5732 5732 5733 5734 5735 5736 5738 5739 5740 5741 5742 5742 5743 5743 5743 5743 5743 5743 5743 5743 5742 5742 5742 5742 5741 5740 5739
5764 5764 5762 5762 5761 5760 5759 5758 5757 5756 5756 5754 5753 5752 5751 5751 5751 5751 5750 5750 5749 5748 5747 5746 5745 5743 5741 5739 5737 5736 5735 5734 5733 5732 5731 5731 5731 5731 5732 5733 5734 5735 5736 5738 5739 5740 5740 5741 5741 5741 5741 5741 5741 5741 5741 5741 5741 5741 5741 5741 5740 5739 5739
5763 5762 5760 5759 5759 5758 5757 5756 5755 5755 5754 5752 5751 5750 5749 5749 5749 5748 5748 5748 5747 5746 5745 5744 5743 5741 5739 5737 5736 5734 5734 5733 5732 5732 5731 5731 5731 5731 5732 5732 5733 5734 5736 5737 5738 5738 5739 5739 5740 5740 5741 5741 5741 5741 5741 5741 5741 5740 5740 5740 5739 5739 5738
5761 5759 5758 5757 5756 5756 5755 5754 5754 5753 5752 5750 5748 5747 5747 5747 5747 5746 5746 5746 5746 5745 5744 5743 5742 5740 5738 5736 5735 5734 5733 5733 5732 5732 5731 5731 5731 5731 5732 5732 5733 5734 5735 5736 5737 5738 5738 5739 5740 5740 5740 5741 5741 5741 5741 5741 5740 5740 5740 5739 5738 5737 5737
5758 5757 5756 5755 5754 5754 5753 5752 5752 5751 5750 5748 5747 5746 5745 5745 5745 5745 5745 5745 5744 5744 5743 5742 5741 5739 5737 5736 5734 5733 5733 5732 5732 5732 5731 5731 5731 5731 5732 5732 5733 5734 5735 5736 5737 5738 5739 5739 5740 5740 5740 5741 5741 5741 5741 5740 5740 5740 5739 5738 5738 5737 5736
5756 5755 5754 5753 5752 5751 5751 5750 5749 5748 5747 5746 5745 5744 5744 5743 5743 5743 5743 5743 5743 5742 5742 5741 5740 5738 5737 5736 5734 5733 5732 5732 5731 5731 5731 5732 5732 5732 5732 5733 5734 5735 5736 5737 5738 5739 5739 5740 5740 5740 5741 5741 5741 5741 5740 5740 5740 5739 5739 5738 5738 5737 5736
5754 5753 5752 5751 5750 5749 5749 5748 5747 5747 5746 5744 5743 5742 5742 5742 5742 5742 5742 5742 5742 5741 5741 5740 5739 5738 5737 5736 5734 5733 5733 5732 5731 5731 5731 5732 5732 5733 5733 5734 5735 5736 5737 5738 5738 5739 5740 5740 5740 5740 5741 5741 5741 5741 5740 5740 5740 5739 5738 5738 5737 5737 5736
5752 5751 5750 5749 5748 5747 5747 5747 5746 5745 5744 5742 5741 5741 5741 5741 5741 5741 5741 5741 5740 5740 5740 5739 5738 5737 5736 5736 5735 5734 5733 5733 5732 5732 5732 5732 5733 5734 5735 5735 5736 5737 5738 5739 5739 5740 5740 5740 5740 5740 5740 5740 5740 5740 5740 5740 5739 5739 5738 5737 5737 5736 5736
5750 5749 5748 5746 5745 5745 5745 5744 5743 5742 5742 5741 5740 5739 5739 5740 5740 5739 5739 5739 5739 5739 5739 5738 5737 5736 5736 5736 5735 5734 5734 5733 5733 5733 5733 5734 5734 5735 5736 5737 5738 5738 5739 5739 5740 5740 5740 5740 5740 5740 5740 5740 5740 5739 5739 5739 5739 5738 5738 5737 5736 5736 5735
5747 5746 5745 5744 5743 5743 5743 5742 5741 5740 5740 5739 5738 5738 5738 5738 5738 5738 5738 5738 5738 5738 5738 5737 5736 5736 5736 5735 5735 5735 5734 5734 5734 5734 5734 5735 5736 5736 5737 5738 5739 5739 5740 5740 5740 5740 5740 5740 5740 5740 5740 5740 5739 5739 5739 5738 5738 5737 5737 5736 5735 5735 5734
5745 5744 5743 5742 5741 5741 5741 5740 5740 5739 5738 5737 5737 5737 5737 5737 5737 5737 5737 5737 5737 5737 5737 5736 5736 5735 5735 5735 5735 5735 5735 5735 5735 5735 5735 5736 5737 5738 5738 5739 5739 5740 5740 5740 5740 5740 5740 5740 5740 5740 5740 5739 5739 5738 5738 5738 5737 5737 5736 5735 5734 5734 5733
5744 5742 5741 5740 5739 5739 5739 5738 5738 5737 5736 5736 5735 5736 5736 5736 5736 5736 5736 5736 5736 5736 5735 5735 5735 5735 5735 5735 5735 5735 5735 5735 5736 5736 5736 5737 5738 5738 5739 5739 5740 5740 5740 5740 5740 5740 5740 5740 5740 5740 5739 5739 5739 5738 5737 5737 5736 5736 5735 5734 5733 5733 5732
5742 5741 5739 5738 5738 5737 5737 5737 5736 5735 5735 5734 5734 5734 5735 5735 5735 5735 5735 5734 5734 5734 5734 5735 5734 5734 5734 5735 5735 5735 5735 5736 5736 5737 5737 5738 5738 5739 5739 5740 5740 5740 5740 5740 5740 5740 5740 5740 5740 5739 5739 5739 5738 5738 5737 5736 5736 5735 5734 5733 5733 5732 5731
5740 5739 5738 5737 5736 5735 5735 5734 5734 5734 5734 5733 5732 5732 5733 5733 5733 5733 5733 5733 5733 5733 5733 5733 5734 5734 5734 5734 5735 5735 5736 5736 5737 5737 5738 5738 5739 5739 5740 5740 5740 5740 5740 5740 5740 5740 5740 5740 5740 5739 5739 5738 5738 5737 5737 5736 5735 5735 5734 5733 5732 5731 5731
5737 5737 5736 5735 5734 5734 5733 5732 5732 5732 5732 5731 5731 5731 5731 5732 5732 5732 5732 5732 5732 5732 5732 5732 5733 5733 5733 5734 5735 5735 5736 5736 5737 5737 5738 5738 5739 5739 5740 5740 5740 5740 5740 5740 5740 5740 5740 5740 5739 5739 5739 5738 5738 5737 5736 5736 5735 5734 5733 5732 5732 5731 5730
5735 5734 5734 5733 5733 5732 5731 5731 5730 5730 5730 5730 5729 5729 5730 5730 5730 5730 5730 5731 5731 5731 5731 5731 5732 5732 5733 5733 5734 5735 5735 5736 5737 5737 5738 5738 5739 5739 5740 5740 5740 5740 5740 5740 5740 5740 5740 5739 5739 5739 5738 5738 5737 5737 5736 5735 5734 5734 5733 5732 5731 5730 5730
5733 5732 5732 5731 5731 5730 5729 5729 5728 5728 5728 5728 5728 5728 5728 5729 5729 5729 5729 5729 5730 5730 5730 5730 5730 5731 5732 5732 5733 5734 5735 5736 5736 5737 5737 5738 5738 5739 5739 5739 5739 5739 5739 5739 5739 5739 5739 5739 5739 5738 5738 5737 5737 5736 5735 5735 5734 5733 5732 5732 5731 5730 5729
5731 5731 5730 5729 5729 5728 5728 5727 5727 5726 5726 5727 5726 5726 5726 5727 5727 5728 5728 5728 5728 5729 5729 5729 5729 5730 5730 5731 5732 5733 5734 5735 5735 5736 5737 5737 5737 5738 5738 5738 5738 5739 5739 5739 5739 5739 5738 5738 5738 5738 5737 5737 5736 5736 5735 5734 5733 5733 5732 5731 5730 5729 5728
5729 5729 5728 5727 5727 5726 5726 5725 5725 5725 5725 5725 5725 5725 5725 5725 5726 5726 5726 5726 5727 5727 5727 5728 5728 5728 5729 5730 5731 5732 5733 5734 5734 5735 5736 5736 5737 5737 5737 5737 5738 5738 5738 5738 5738 5738 5738 5738 5738 5737 5737 5736 5736 5735 5734 5733 5733 5732 5731 5730 5729 5728 5727
5727 5726 5726 5725 5725 5724 5724 5724 5723 5723 5723 5723 5724 5723 5723 5723 5724 5724 5724 5724 5725 5725 5726 5726 5727 5727 5728 5728 5730 5731 5732 5732 5733 5734 5735 5735 5735 5736 5736 5736 5737 5737 5737 5737 5737 5737 5737 5737 5737 5737 5736 5735 5735 5734 5733 5732 5732 5730 5729 5729 5728 5727 5726
5724 5724 5723 5723 5722 5722 5722 5721 5721 5721 5721 5721 5722 5722 5721 5721 5722 5722 5722 5723 5723 5723 5724 5725 5725 5726 5726 5727 5728 5729 5730 5731 5732 5732 5733 5734 5734 5734 5735 5735 5735 5735 5735 5736 5736 5736 5736 5736 5736 5735 5735 5734 5734 5733 5732 5731 5730 5729 5728 5727 5727 5726 5725
5721 5721 5721 5720 5720 5719 5719 5719 5719 5718 5719 5719 5719 5720 5720 5720 5720 5720 5720 5721 5721 5721 5722 5723 5724 5724 5725 5725 5726 5727 5728 5729 5730 5731 5731 5732 5733 5733 5733 5734 5734 5734 5734 5734 5734 5734 5734 5734 5734 5734 5734 5733 5733 5732 5731 5730 5729 5728 5727 5726 5726 5725 5724
5718 5718 5718 5717 5717 5717 5717 5717 5717 5716 5716 5716 5716 5717 5717 5717 5718 5718 5718 5719 5719 5719 5720 5721 5722 5722 5723 5723 5724 5725 5726 5727 5728 5728 5729 5730 5731 5731 5732 5732 5732 5732 5732 5733 5733 5733 5733 5733 5733 5733 5732 5732 5731 5731 5730 5729 5728 5727 5726 5725 5724 5723 5722
5715 5715 5714 5714 5714 5714 5714 5715 5715 5715 5714 5714 5714 5714 5715 5715 5715 5715 5716 5716 5717 5717 5718 5719 5720 5720 5721 5721 5722 5723 5724 5725 5725 5726 5727 5728 5729 5729 5730 5730 5730 5730 5731 5731 5731 5731 5731 5731 5731 5731 5731 5730 5730 5729 5728 5728 5727 5726 5725 5724 5723 5722 5721
5713 5712 5711 5711 5711 5711 5711 5712 5712 5713 5712 5712 5711 5711 5712 5712 5713 5713 5713 5714 5715 5715 5716 5717 5717 5718 5719 5719 5720 5721 5721 5722 5723 5724 5725 5726 5726 5727 5727 5728 5728 5729 5729 5729 5729 5729 5729 5729 5729 5729 5729 5728 5728 5727 5727 5726 5725 5725 5724 5723 5722 5721 5720